TimeEST,TemperatureF,Dew PointF,Humidity,Sea Level PressureIn,VisibilityMPH,Wind Direction,Wind SpeedMPH,Gust SpeedMPH,PrecipitationIn,Events,Conditions,WindDirDegrees,DateUTC
12:15 AM,48.2,39.2,71,30.26,10.0,WSW,6.9,-,N/A,,Clear,240,2013-01-29 05:15:00
12:35 AM,48.2,39.2,71,30.25,10.0,WSW,9.2,-,N/A,,Clear,240,2013-01-29 05:35:00
12:55 AM,48.2,41.0,76,30.25,10.0,WSW,8.1,-,N/A,,Clear,240,2013-01-29 05:55:00
1:15 AM,48.2,39.2,71,30.24,10.0,West,4.6,-,N/A,,Clear,260,2013-01-29 06:15:00
1:35 AM,46.4,39.2,76,30.24,10.0,Calm,Calm,-,N/A,,Clear,0,2013-01-29 06:35:00
1:55 AM,46.4,39.2,76,30.25,10.0,Calm,Calm,-,N/A,,Clear,0,2013-01-29 06:55:00
2:15 AM,44.6,39.2,81,30.25,10.0,Calm,Calm,-,N/A,,Clear,0,2013-01-29 07:15:00
2:35 AM,42.8,37.4,81,30.24,9.0,SW,4.6,-,N/A,,Clear,220,2013-01-29 07:35:00
2:55 AM,42.8,39.2,87,30.24,8.0,SW,5.8,-,N/A,,Clear,230,2013-01-29 07:55:00
3:15 AM,44.6,39.2,81,30.23,10.0,West,3.5,-,N/A,,Clear,260,2013-01-29 08:15:00
3:35 AM,46.4,41.0,81,30.23,8.0,WSW,5.8,-,N/A,,Clear,240,2013-01-29 08:35:00
3:55 AM,46.4,42.8,87,30.22,9.0,WSW,5.8,-,N/A,,Clear,250,2013-01-29 08:55:00
4:15 AM,46.4,42.8,87,30.22,10.0,West,3.5,-,N/A,,Clear,270,2013-01-29 09:15:00
4:35 AM,46.4,42.8,87,30.22,10.0,West,3.5,-,N/A,,Clear,260,2013-01-29 09:35:00
4:55 AM,46.4,42.8,87,30.22,9.0,Calm,Calm,-,N/A,,Clear,0,2013-01-29 09:55:00
5:15 AM,44.6,39.2,81,30.22,5.0,Calm,Calm,-,N/A,,Clear,0,2013-01-29 10:15:00
5:35 AM,44.6,41.0,87,30.22,5.0,SW,4.6,-,N/A,,Clear,230,2013-01-29 10:35:00
5:55 AM,44.6,42.8,93,30.22,6.0,West,3.5,-,N/A,,Clear,260,2013-01-29 10:55:00
6:15 AM,42.8,39.2,87,30.22,5.0,SW,5.8,-,N/A,,Clear,230,2013-01-29 11:15:00
6:35 AM,42.8,39.2,87,30.22,4.0,Calm,Calm,-,N/A,,Clear,0,2013-01-29 11:35:00
6:55 AM,42.8,39.2,87,30.23,3.0,Calm,Calm,-,N/A,,Clear,0,2013-01-29 11:55:00
7:15 AM,42.8,39.2,87,30.23,2.5,WSW,3.5,-,N/A,,Clear,240,2013-01-29 12:15:00
7:35 AM,42.8,39.2,87,30.23,3.0,Calm,Calm,-,N/A,,Clear,0,2013-01-29 12:35:00
7:55 AM,44.6,42.8,93,30.24,4.0,Calm,Calm,-,N/A,,Clear,0,2013-01-29 12:55:00
8:15 AM,46.4,42.8,87,30.24,5.0,Calm,Calm,-,N/A,,Clear,0,2013-01-29 13:15:00
8:35 AM,48.2,44.6,87,30.24,5.0,West,4.6,-,N/A,,Partly Cloudy,260,2013-01-29 13:35:00
8:55 AM,50.0,44.6,82,30.24,8.0,West,3.5,-,N/A,,Clear,270,2013-01-29 13:55:00
9:15 AM,53.6,46.4,77,30.24,9.0,West,6.9,-,N/A,,Clear,270,2013-01-29 14:15:00
9:35 AM,55.4,46.4,72,30.24,10.0,WSW,8.1,-,N/A,,Scattered Clouds,250,2013-01-29 14:35:00
9:55 AM,55.4,48.2,77,30.23,10.0,West,3.5,-,N/A,,Overcast,260,2013-01-29 14:55:00
10:35 AM,62.6,51.8,68,30.23,10.0,West,10.4,-,N/A,,Clear,260,2013-01-29 15:35:00
10:55 AM,64.4,51.8,64,30.23,10.0,WSW,10.4,-,N/A,,Clear,240,2013-01-29 15:55:00
11:15 AM,64.4,53.6,68,30.23,10.0,West,9.2,18.4,N/A,,Clear,270,2013-01-29 16:15:00
11:35 AM,66.2,53.6,64,30.22,10.0,West,6.9,-,N/A,,Clear,270,2013-01-29 16:35:00
11:55 AM,66.2,53.6,64,30.21,10.0,West,4.6,-,N/A,,Clear,260,2013-01-29 16:55:00
12:15 PM,69.8,53.6,56,30.19,10.0,WSW,8.1,-,N/A,,Clear,240,2013-01-29 17:15:00
12:35 PM,71.6,53.6,53,30.17,10.0,SW,9.2,-,N/A,,Clear,220,2013-01-29 17:35:00
12:55 PM,71.6,53.6,53,30.16,10.0,WSW,10.4,16.1,N/A,,Clear,240,2013-01-29 17:55:00
1:15 PM,71.6,53.6,53,30.15,10.0,West,8.1,-,N/A,,Clear,260,2013-01-29 18:15:00
1:35 PM,71.6,53.6,53,30.14,10.0,WSW,11.5,-,N/A,,Clear,240,2013-01-29 18:35:00
1:55 PM,73.4,53.6,50,30.14,10.0,WSW,9.2,-,N/A,,Clear,250,2013-01-29 18:55:00
2:15 PM,73.4,53.6,50,30.13,10.0,West,9.2,18.4,N/A,,Clear,270,2013-01-29 19:15:00
2:35 PM,73.4,53.6,50,30.13,10.0,WSW,9.2,18.4,N/A,,Clear,250,2013-01-29 19:35:00
2:55 PM,73.4,53.6,50,30.13,10.0,SW,11.5,-,N/A,,Clear,220,2013-01-29 19:55:00
3:15 PM,73.4,53.6,50,30.13,10.0,SW,13.8,18.4,N/A,,Clear,230,2013-01-29 20:15:00
3:35 PM,73.4,53.6,50,30.13,10.0,WSW,9.2,-,N/A,,Clear,250,2013-01-29 20:35:00
3:55 PM,73.4,53.6,50,30.12,10.0,SW,11.5,18.4,N/A,,Clear,230,2013-01-29 20:55:00
4:15 PM,73.4,53.6,50,30.12,10.0,SW,10.4,-,N/A,,Clear,220,2013-01-29 21:15:00
4:35 PM,73.4,53.6,50,30.11,10.0,WSW,8.1,-,N/A,,Clear,240,2013-01-29 21:35:00
4:55 PM,71.6,53.6,53,30.11,10.0,SW,8.1,-,N/A,,Clear,230,2013-01-29 21:55:00
5:15 PM,71.6,53.6,53,30.10,10.0,SSW,4.6,-,N/A,,Clear,200,2013-01-29 22:15:00
5:35 PM,68.0,51.8,56,30.10,10.0,SSW,5.8,-,N/A,,Clear,210,2013-01-29 22:35:00
5:55 PM,66.2,51.8,60,30.10,10.0,SSW,3.5,-,N/A,,Clear,200,2013-01-29 22:55:00
6:15 PM,66.2,51.8,60,30.10,10.0,South,4.6,-,N/A,,Clear,180,2013-01-29 23:15:00
6:35 PM,66.2,53.6,64,30.10,10.0,South,4.6,-,N/A,,Clear,190,2013-01-29 23:35:00
6:55 PM,64.4,53.6,68,30.10,10.0,South,5.8,-,N/A,,Clear,190,2013-01-29 23:55:00
7:15 PM,64.4,53.6,68,30.11,10.0,SSW,6.9,-,N/A,,Clear,200,2013-01-30 00:15:00
7:35 PM,64.4,53.6,68,30.10,10.0,SSW,6.9,-,N/A,,Clear,200,2013-01-30 00:35:00
7:55 PM,62.6,53.6,72,30.11,10.0,SSW,6.9,-,N/A,,Clear,200,2013-01-30 00:55:00
8:15 PM,64.4,53.6,68,30.11,10.0,SSW,5.8,-,N/A,,Mostly Cloudy,200,2013-01-30 01:15:00
8:35 PM,64.4,53.6,68,30.09,10.0,SSE,3.5,-,N/A,,Mostly Cloudy,160,2013-01-30 01:35:00
8:55 PM,60.8,51.8,72,30.11,10.0,SSW,5.8,-,N/A,,Partly Cloudy,210,2013-01-30 01:55:00
9:15 PM,64.4,55.4,73,30.10,10.0,South,9.2,-,N/A,,Scattered Clouds,190,2013-01-30 02:15:00
9:35 PM,64.4,55.4,73,30.09,10.0,SSW,11.5,17.3,N/A,,Clear,210,2013-01-30 02:35:00
9:55 PM,64.4,55.4,73,30.08,10.0,South,11.5,20.7,N/A,,Clear,190,2013-01-30 02:55:00
10:15 PM,64.4,55.4,73,30.10,10.0,SW,12.7,-,N/A,,Clear,220,2013-01-30 03:15:00
10:35 PM,62.6,53.6,72,30.10,10.0,SSW,10.4,-,N/A,,Clear,210,2013-01-30 03:35:00
10:55 PM,62.6,55.4,77,30.10,10.0,SSW,11.5,-,N/A,,Clear,210,2013-01-30 03:55:00
11:15 PM,62.6,55.4,77,30.10,10.0,SSW,11.5,16.1,N/A,,Clear,210,2013-01-30 04:15:00
11:35 PM,62.6,55.4,77,30.09,10.0,SSW,12.7,-,N/A,,Clear,210,2013-01-30 04:35:00
11:55 PM,62.6,57.2,82,30.08,10.0,SSW,16.1,20.7,N/A,,Clear,210,2013-01-30 04:55:00